Torna al catalogo

STARLINK-11150

AttivoComunicazioniVLEO
NORAD 60406·PAYLOAD·🇺🇸 United States

Lanciato Aug 10, 2024 da Cape Canaveral Space Force Station

Loading…

Prossimi Passaggi (prossime 24 ore)

TLE

AggiornatoSource: CelesTrak SupGP

Epoca: Sep 14, 2026, 21:17 UTC

1 60406C 24141J   26257.88729167  .00057531  00000+0  47387-3 0  2577
2 60406  53.1575 233.7653 0001367  97.8988 348.3342 15.69681936    11

Traccia STARLINK-11150 in tempo reale con AllMySat

Download on the App Store